User: anonymous   Login
Location: Hastringsfeld
(50.9620°N, 10.4787°E)
Time: 05:29:06
(UTC+00:00)
Language:

NOSS 2-3 (C) - Orbit

View from above orbital plane
View from above orbital plane
View from above satellite
View from above satellite

Ground track
Ground track

The orbit data is extracted from the following two-line orbital elements,

1 23908U 96029C   24025.73979602 0.00002200  00000-0  51162-3 0    09
2 23908  63.3368 308.5728 0803850  36.5982 323.3048 13.42388061    02
Epoch (UTC): 25 January 2024 17:45:18
Eccentricity: 0.0803850
inclination: 63.3368°
perigee height: 499 km
apogee height: 1701 km
right ascension of ascending node: 308.5728°
argument of perigee: 36.5982°
revolutions per day: 13.42388061
mean anomaly at epoch: 323.3048°
orbit number at epoch: 0

The dashed part of the orbit path shows where the satellite is in the earth's shadow,  

DLR